Location: ??????
(55.2000°N, 38.3000°E)
Time: 08:59:18
(UTC+00:00)

Resurs 1-4 Rocket - Pass Details

Date: 15 November 2025
Orbit: 799 x 811 km, 98.8° (Epoch: 14 December)

Event Time Altitude Azimuth Distance (km) Brightness Sun altitude
Rises 00:45:42 0° 15° (NNE) 3,340 5.7 -35.6°
Reaches altitude 10° 00:48:03 10° 12° (NNE) 2,406 4.9 -35.3°
Enters shadow 00:49:19 18° 9° (N) 1,922 4.3 -35.1°
